STARLINK-35646

Last updated on Mon Dec 15 2025 00:02:12 GMT+0000 (Coordinated Universal Time)

1 66859U 25281M 25348.25003472 -.01233945 00000+0 -51093-2 0 9995 2 66859 43.0006 112.9667 0001540 269.3716 280.3754 15.87315582 1640
UTC large
Height (km)
Speed (km/s)
/
Latitude / Longitude
Inclination (degrees)
Orbital Period (minutes)
Azimuth
Elevation
Range (km)
Doppler Factor

Next 0 passes for location: London (51.5072 / 0.1276)

Sorry there are no passes over London.